Montevideo, MN

10:26 AM CDT on July 22, 2017 (GMT -0500)
Montevideo-Chippewa County

Weather History for KMVE - October, 2013

Change the Weather History Date:

Tuesday, October 1, 2013

  Actual Average Record
Temperature  
Mean Temperature 63 °F -  
Max Temperature 73 °F 71 °F 90 °F (1963)
Min Temperature 53 °F 43 °F 25 °F (1961)
Degree Days  
Heating Degree Days 2    
Growing Degree Days 13 (Base 50)    
Moisture  
Dew Point 41 °F    
Average Humidity 47    
Maximum Humidity 82    
Minimum Humidity 20    
Precipitation  
Precipitation 0.00 in - - ()
Sea Level Pressure  
Sea Level Pressure 29.84 in    
Wind  
Wind Speed 9 mph (WNW)    
Max Wind Speed 17 mph    
Max Gust Speed 24 mph    
Visibility 10 miles    
Events      
Averages and records for this station are not official NWS values.
T = Trace of Precipitation, MM = Missing Value Source: NWS Daily Summary

Daily Weather History Graph

Daily Weather History Graph

Search for Another Location

Airport or City:

Trip Planner

Search our weather history database for the weather conditions in past years. The results will help you decide how hot, cold, wet, or windy it might be!

Date:

Astronomy

Oct. 01, 2013 Rise Set
Actual Time 7:21 AM CDT 7:02 PM CDT
Civil Twilight 6:51 AM CDT 7:31 PM CDT
Nautical Twilight 6:17 AM CDT 8:05 PM CDT
Astronomical Twilight 5:43 AM CDT 8:40 PM CDT
Moon 3:48 AM CDT (10/1) 5:13 PM CDT (10/1)
Length of Visible Light 12h 40m
Length of Day
11h 41m
Waning Crescent, 12% of the Moon is Illuminated
Oct 1
Waning Crescent
Oct 4
New
Oct 11
First Quarter
Oct 18
Full
Oct 26
Last Quarter

Hourly Weather History & Observations

Time (CDT) Temp. Dew Point Humidity Pressure Visibility Wind Dir Wind Speed Gust Speed Precip Events Conditions
12:14 AM 66.2 °F 51.8 °F 60% 29.53 in 10.0 mi SSW 10.4 mph - N/A   Clear
12:34 AM 66.2 °F 51.8 °F 60% 29.52 in 10.0 mi SW 10.4 mph - N/A   Clear
12:53 AM 66.2 °F 51.8 °F 60% 29.52 in 10.0 mi SW 10.4 mph - N/A   Clear
1:14 AM 66.2 °F 51.8 °F 60% 29.53 in 10.0 mi WSW 10.4 mph - N/A   Clear
1:34 AM 68.0 °F 51.8 °F 56% 29.53 in 10.0 mi WSW 13.8 mph 18.4 mph N/A   Clear
1:53 AM 69.8 °F 51.8 °F 53% 29.55 in 10.0 mi West 11.5 mph - N/A   Clear
2:14 AM 69.8 °F 51.8 °F 53% 29.57 in 10.0 mi West 12.7 mph 16.1 mph N/A   Clear
2:34 AM 69.8 °F 51.8 °F 53% 29.57 in 10.0 mi West 12.7 mph 21.9 mph N/A   Clear
2:53 AM 69.8 °F 51.8 °F 53% 29.58 in 10.0 mi WNW 8.1 mph - N/A   Clear
3:14 AM 66.2 °F 51.8 °F 60% 29.60 in 10.0 mi WNW 11.5 mph 16.1 mph N/A   Clear
3:34 AM 66.2 °F 51.8 °F 60% 29.64 in 10.0 mi NW 15.0 mph 24.2 mph N/A   Clear
3:53 AM 64.4 °F 51.8 °F 64% 29.65 in 10.0 mi NNW 10.4 mph - N/A   Clear
4:14 AM 62.6 °F 51.8 °F 68% 29.67 in 10.0 mi NNW 9.2 mph - N/A   Clear
4:34 AM 62.6 °F 51.8 °F 68% 29.69 in 10.0 mi NNW 9.2 mph - N/A   Clear
4:53 AM 60.8 °F 51.8 °F 72% 29.71 in 10.0 mi NW 9.2 mph - N/A   Clear
5:14 AM 60.8 °F 51.8 °F 72% 29.72 in 10.0 mi NNW 8.1 mph - N/A   Clear
5:34 AM 59.0 °F 51.8 °F 77% 29.73 in 10.0 mi NNW 6.9 mph - N/A   Clear
5:54 AM 57.2 °F 51.8 °F 82% 29.76 in 10.0 mi NW 8.1 mph - N/A   Clear
6:14 AM 57.2 °F 48.2 °F 72% 29.77 in 10.0 mi NNW 8.1 mph 16.1 mph N/A   Clear
6:33 AM 57.2 °F 48.2 °F 72% 29.79 in 10.0 mi WNW 8.1 mph - N/A   Clear
6:54 AM 57.2 °F 48.2 °F 72% 29.80 in 10.0 mi West 4.6 mph - N/A   Clear
7:14 AM 55.4 °F 48.2 °F 77% 29.81 in 10.0 mi WNW 6.9 mph - N/A   Clear
7:33 AM 55.4 °F 46.4 °F 72% 29.82 in 10.0 mi NW 6.9 mph - N/A   Clear
7:54 AM 55.4 °F 46.4 °F 72% 29.83 in 10.0 mi NNW 5.8 mph - N/A   Clear
8:14 AM 55.4 °F 46.4 °F 72% 29.84 in 10.0 mi NW 4.6 mph - N/A   Clear
8:33 AM 57.2 °F 46.4 °F 67% 29.85 in 10.0 mi NW 5.8 mph - N/A   Clear
8:54 AM 59.0 °F 44.6 °F 59% 29.86 in 10.0 mi NW 9.2 mph - N/A   Clear
9:14 AM 60.8 °F 42.8 °F 52% 29.86 in 10.0 mi NNW 12.7 mph 17.3 mph N/A   Clear
9:33 AM 60.8 °F 42.8 °F 52% 29.87 in 10.0 mi NNW 10.4 mph - N/A   Clear
9:54 AM 62.6 °F 42.8 °F 48% 29.88 in 10.0 mi NW 10.4 mph - N/A   Clear
10:14 AM 64.4 °F 39.2 °F 40% 29.90 in 10.0 mi NNW 10.4 mph - N/A   Clear
10:33 AM 64.4 °F 39.2 °F 40% 29.90 in 10.0 mi North 13.8 mph 20.7 mph N/A   Clear
10:54 AM 66.2 °F 41.0 °F 40% 29.91 in 10.0 mi North 8.1 mph 19.6 mph N/A   Clear
11:13 AM 66.2 °F 37.4 °F 35% 29.91 in 10.0 mi NW 9.2 mph 18.4 mph N/A   Clear
11:34 AM 66.2 °F 37.4 °F 35% 29.91 in 10.0 mi NW 11.5 mph 17.3 mph N/A   Clear
11:54 AM 68.0 °F 37.4 °F 33% 29.91 in 10.0 mi NNW 9.2 mph 12.7 mph N/A   Clear
12:14 PM 69.8 °F 35.6 °F 28% 29.91 in 10.0 mi NNW 10.4 mph 17.3 mph N/A   Clear
12:34 PM 71.6 °F 35.6 °F 27% 29.91 in 10.0 mi NNW 12.7 mph 18.4 mph N/A   Clear
12:54 PM 71.6 °F 37.4 °F 29% 29.91 in 10.0 mi North 12.7 mph 18.4 mph N/A   Clear
1:14 PM 71.6 °F 35.6 °F 27% 29.91 in 10.0 mi NNW 12.7 mph 18.4 mph N/A   Clear
1:34 PM 71.6 °F 33.8 °F 25% 29.91 in 10.0 mi NNW 17.3 mph 24.2 mph N/A   Clear
1:54 PM 73.4 °F 33.8 °F 23% 29.91 in 10.0 mi NW 10.4 mph 19.6 mph N/A   Clear
2:14 PM 73.4 °F 32.0 °F 22% 29.91 in 10.0 mi NNW 12.7 mph 20.7 mph N/A   Clear
2:34 PM 73.4 °F 32.0 °F 22% 29.91 in 10.0 mi WNW 10.4 mph 19.6 mph N/A   Clear
2:54 PM 73.4 °F 33.8 °F 23% 29.91 in 10.0 mi WNW 9.2 mph 17.3 mph N/A   Clear
3:14 PM 73.4 °F 33.8 °F 23% 29.91 in 10.0 mi NW 9.2 mph 19.6 mph N/A   Clear
3:33 PM 73.4 °F 33.8 °F 23% 29.92 in 10.0 mi NNW 10.4 mph 20.7 mph N/A   Clear
3:54 PM 73.4 °F 33.8 °F 23% 29.91 in 10.0 mi NW 11.5 mph 20.7 mph N/A   Clear
4:14 PM 73.4 °F 33.8 °F 23% 29.92 in 10.0 mi NW 8.1 mph 16.1 mph N/A   Clear
4:34 PM 73.4 °F 32.0 °F 22% 29.92 in 10.0 mi NW 10.4 mph 19.6 mph N/A   Clear
4:53 PM 73.4 °F 30.2 °F 20% 29.92 in 10.0 mi NW 12.7 mph 17.3 mph N/A   Clear
5:14 PM 73.4 °F 32.0 °F 22% 29.92 in 10.0 mi NW 10.4 mph 16.1 mph N/A   Clear
5:34 PM 73.4 °F 32.0 °F 22% 29.92 in 10.0 mi NW 9.2 mph - N/A   Clear
5:53 PM 71.6 °F 32.0 °F 23% 29.92 in 10.0 mi WNW 9.2 mph - N/A   Clear
6:14 PM 71.6 °F 33.8 °F 25% 29.93 in 10.0 mi NW 5.8 mph - N/A   Clear
6:34 PM 69.8 °F 33.8 °F 27% 29.93 in 10.0 mi WNW 3.5 mph - N/A   Clear
6:53 PM 66.2 °F 33.8 °F 30% 29.94 in 10.0 mi WNW 4.6 mph - N/A   Clear
7:14 PM 64.4 °F 33.8 °F 32% 29.94 in 10.0 mi West 3.5 mph - N/A   Clear
7:34 PM 60.8 °F 37.4 °F 42% 29.95 in 10.0 mi West 3.5 mph - N/A   Clear
7:53 PM 60.8 °F 37.4 °F 42% 29.95 in 10.0 mi West 3.5 mph - N/A   Clear
8:14 PM 59.0 °F 37.4 °F 45% 29.96 in 10.0 mi West 4.6 mph - N/A   Clear
8:34 PM 60.8 °F 37.4 °F 42% 29.96 in 10.0 mi West 4.6 mph - N/A   Clear
8:54 PM 60.8 °F 37.4 °F 42% 29.96 in 10.0 mi West 4.6 mph - N/A   Clear
9:14 PM 55.4 °F 39.2 °F 54% 29.97 in 10.0 mi West 4.6 mph - N/A   Clear
9:34 PM 55.4 °F 39.2 °F 54% 29.97 in 10.0 mi West 4.6 mph - N/A   Clear
9:54 PM 55.4 °F 39.2 °F 54% 29.98 in 10.0 mi West 3.5 mph - N/A   Clear
10:13 PM 53.6 °F 39.2 °F 58% 29.98 in 10.0 mi West 4.6 mph - N/A   Clear
10:34 PM 55.4 °F 37.4 °F 51% 29.99 in 10.0 mi West 4.6 mph - N/A   Clear
10:54 PM 57.2 °F 37.4 °F 48% 29.99 in 10.0 mi WNW 6.9 mph - N/A   Clear
11:13 PM 55.4 °F 37.4 °F 51% 30.00 in 10.0 mi West 5.8 mph - N/A   Clear
11:34 PM 55.4 °F 37.4 °F 51% 30.01 in 10.0 mi West 3.5 mph - N/A   Clear
11:54 PM 53.6 °F 37.4 °F 54% 30.01 in 10.0 mi West 4.6 mph - N/A   Clear